Simultaneous Nadir Overpasses (SNOs) Predictions

Prediction of SNOs over PacNW region [( 10.00, 139.50) to ( 22.70, 165.60)] between AQUA and NPP Satellites:

Table of predicted SNOs over PacNW region for the next 30.0 days since TLE Epoch: 1/30/2021
Index Date (AQUA) Time (AQUA) AQUA Lat,Lon Date (NPP) Time (NPP) NPP Lat,Lon Distance(km) Time Diff (sec)
1 02/04/2021 15:59:17 22.59, 147.48 02/04/2021 16:01:24 23.21, 144.56 306.86 127
2 02/12/2021 15:09:52 22.60, 159.84 02/12/2021 15:10:39 23.18, 157.24 274.24 47
3 02/15/2021 03:31:42 22.65, 147.52 02/15/2021 03:28:13 27.31, 144.58 596.59 209
4 02/20/2021 15:59:20 22.61, 147.48 02/20/2021 16:01:23 23.23, 144.56 306.97 123
